#timestamp,LO_Frequency,Hit,StdDev 
1503900015.8,286047001.6,N,1.2
1503900035.6,286047001.4,N,1.1
1503900055.4,286047001.3,N,1.1
1503900075.3,286047003.9,Y,0.0
1503900095.1,286047002.1,P,0.5
1503900115.8,286047002.4,P,0.5
1503900135.7,286047000.1,N,0.9
1503900155.5,286046999.8,N,1.0
1503900175.4,286047002.8,N,1.1
1503900195.2,286047002.7,N,1.1
1503900215.0,286047001.6,N,1.1
1503900215.9,286047001.6,N,1.0
1503900235.8,286047002.1,N,1.0
1503900255.6,286047002.6,N,1.0
1503900275.4,286047002.1,N,0.9
1503900295.3,286047002.0,N,0.9
1503900315.1,286047002.1,N,0.9
1503900316.0,286047002.1,N,0.8
1503900335.8,286047001.3,N,0.8
1503900355.7,286047002.1,N,0.8
1503900375.5,286047001.7,N,0.8
1503900395.3,286047001.4,N,0.8
1503900415.2,286047002.7,Y,0.0
1503900435.0,286047001.1,P,0.3
1503900435.9,286047001.1,P,0.3
1503900455.7,286046999.3,N,0.9
1503900475.6,286046999.3,N,1.0
1503900495.4,286046996.7,Y,0.0
1503900515.3,286046999.6,P,0.5
1503900535.1,286046997.8,P,1.1
1503900536.0,286046997.8,N,1.2
1503900555.8,286046997.5,N,1.2
1503900575.7,286046997.8,N,1.1
1503900595.5,286046995.4,Y,0.0
1503900615.3,286046999.6,P,0.5
1503900635.2,286046996.9,P,1.1
1503900655.9,286046999.2,N,1.0
1503900675.7,286046996.6,Y,0.0
1503900695.6,286047000.8,P,1.1
1503900715.4,286046998.5,N,1.1
1503900735.2,286046999.4,N,0.9
1503900755.1,286046997.0,Y,0.0
1503900756.0,286046997.0,P,1.2
1503900775.8,286047005.7,P,3.7
1503900795.7,286047007.1,N,4.2
1503900815.5,286047003.1,N,3.8
1503900835.3,286047000.2,N,3.6
1503900855.2,286046998.5,N,3.5
1503900875.9,286046998.8,N,3.4
1503900895.7,286046997.0,N,3.5
1503900915.6,286046994.9,N,3.7
1503900935.4,286046997.7,N,3.6
1503900955.2,286046997.3,N,3.6
1503900975.1,286046998.7,N,3.4
1503900976.0,286046998.7,N,3.3
1503900995.8,286046996.6,N,3.3
1503901015.6,286046996.9,N,3.2
1503901035.5,286046996.6,N,3.2
1503901055.3,286046999.2,N,3.1
1503901075.1,286046997.5,N,3.1
1503901095.9,286046997.7,N,3.0
1503901115.7,286046995.4,N,3.0
1503901135.5,286046995.2,N,3.0
1503901155.4,286046995.6,N,3.0
1503901175.2,286046995.7,N,3.0
1503901195.0,286046995.3,N,3.0
1503901195.9,286046995.3,N,3.0
1503901215.8,286046995.5,N,3.0
1503901235.6,286046995.6,N,3.0
1503901255.4,286046995.2,N,3.0
1503901275.3,286046996.2,N,2.9
1503901295.1,286046996.1,N,2.9
1503901315.9,286046993.3,N,3.0
1503901335.7,286046995.9,N,2.6
1503901355.5,286046995.2,N,1.9
1503901375.4,286046996.0,N,1.5
1503901395.2,286046996.3,N,1.4
1503901415.0,286046993.5,Y,0.0
1503901415.9,286046993.5,P,1.5
1503901435.8,286046996.6,N,1.4
1503901455.6,286046998.9,N,1.9
1503901475.4,286046999.6,N,2.1
1503901495.3,286046999.4,N,2.2
1503901515.1,286046999.0,N,2.1
1503901535.8,286046996.7,N,2.0
1503901555.7,286046999.2,N,1.9
1503901575.5,286046996.7,N,1.8
1503901595.3,286046997.2,N,1.8
1503901615.2,286046996.8,N,1.7
1503901635.9,286046996.8,N,1.6
1503901655.7,286046997.4,N,1.6
1503901675.6,286046997.3,N,1.5
1503901695.4,286046994.9,Y,0.0
1503901715.2,286046998.3,P,0.4
1503901735.1,286046998.8,N,0.6
1503901736.0,286046998.8,N,0.6
1503901755.8,286046999.0,N,0.6
1503901775.6,286046999.0,N,0.6
1503901795.5,286046998.9,N,0.5
1503901815.3,286046996.7,Y,0.0
1503901835.1,286046998.8,P,0.1
1503901855.9,286047001.0,P,1.1
1503901875.7,286047000.7,N,1.1
1503901895.5,286046998.2,N,1.2
1503901915.4,286046998.3,N,1.1
1503901935.2,286047000.3,N,1.1
1503901955.0,286047001.2,N,1.2
1503901955.9,286047001.2,N,1.2
1503901975.8,286046998.2,N,1.3
1503901995.6,286047000.7,N,1.2
1503902015.4,286047000.9,N,1.2
1503902035.3,286046998.6,N,1.2
1503902055.1,286046999.8,N,1.2
1503902075.8,286047000.6,N,1.2
1503902095.7,286047001.2,N,1.2
1503902115.5,286046998.4,N,1.2
1503902135.3,286047000.6,N,1.2
1503902155.2,286047000.8,N,1.2
1503902175.0,286046998.8,N,1.2
1503902175.9,286046998.8,N,1.2
1503902195.8,286046996.5,Y,0.0
1503902215.6,286046999.5,P,0.1
1503902235.4,286046997.7,P,0.9
1503902255.3,286046999.6,N,0.8
1503902275.1,286046997.0,Y,0.0
1503902276.0,286046997.0,P,1.1
1503902295.8,286046998.6,N,0.9
1503902315.7,286046998.8,N,0.8
1503902335.5,286046998.6,N,0.7
1503902355.3,286047000.7,N,1.1
1503902375.2,286047001.2,N,1.3
1503902395.9,286046998.1,N,1.3
1503902415.7,286047001.1,N,1.4
1503902435.6,286046998.4,N,1.3
1503902455.4,286046999.3,N,1.3
1503902475.2,286046998.1,N,1.2
1503902495.1,286046998.5,N,1.2
1503902496.0,286046998.5,N,1.2
1503902515.8,286047001.2,N,1.3
1503902535.6,286046998.5,N,1.2
1503902555.5,286046999.1,N,1.2
1503902575.3,286046999.1,N,1.2
1503902595.2,286046999.2,N,1.1
1503902615.9,286046998.7,N,1.1
1503902635.7,286046999.4,N,1.1
1503902655.6,286046998.8,N,1.1
1503902675.4,286046999.3,N,1.0
1503902695.2,286046998.4,N,1.0
1503902715.1,286046998.9,N,1.0
1503902716.0,286046998.9,N,1.0
1503902735.8,286046999.3,N,1.0
1503902755.6,286046999.0,N,0.9
1503902775.5,286046999.3,N,0.9
1503902795.3,286046998.9,N,0.9
1503902815.1,286046999.0,N,0.9
1503902835.9,286046998.5,N,0.8
1503902855.7,286047000.8,N,0.9
1503902875.5,286047001.1,N,0.9
1503902895.4,286047001.0,N,1.0
1503902915.2,286047001.2,N,1.0
1503902935.0,286046998.3,N,1.0
1503902936.0,286682703.8,Y,0.0
1503902955.8,286047000.4,P,0.6
1503902975.6,286047000.8,N,0.7
1503902995.5,286046998.2,N,1.0
1503903015.3,286047000.8,N,1.0
1503903035.1,286047000.5,N,1.0
1503903055.9,286047011.9,Y,0.0
1503903075.7,286046999.8,P,0.1
1503903095.5,286047000.0,N,0.1
1503903115.4,286047000.1,N,0.1
1503903135.2,286047002.5,Y,0.0
1503903155.0,286047002.4,P,1.2
1503903155.9,286047002.4,N,1.1
1503903175.8,286047002.8,N,1.1
1503903195.6,286046999.8,N,1.3
1503903215.5,286047002.7,N,1.3
1503903235.3,286047002.7,N,1.2
1503903255.1,286047000.1,N,1.3
1503903275.9,286047002.6,N,1.3
1503903295.7,286047002.7,N,1.2
1503903315.5,286047002.3,N,1.2
1503903335.4,286047002.8,N,1.2
1503903355.2,286047002.7,N,1.1
1503903375.0,286047002.3,N,1.1
1503903375.9,286047002.3,N,1.1
1503903395.8,286047002.5,N,1.0
1503903415.6,286046999.7,N,1.1
1503903435.4,286047001.5,N,1.1
1503903455.3,286047004.0,Y,0.0
1503903475.1,286047002.2,P,0.1
1503903495.8,286047001.9,P,0.1
1503903515.7,286047001.5,P,0.2
1503903535.5,286047001.5,Y,0.0
1503903555.4,286046998.4,P,1.7
1503903575.2,286046998.6,N,1.6
1503903595.0,286047001.2,N,1.5
1503903595.9,286047001.2,N,1.5
